TimeEDT,TemperatureF,Dew PointF,Humidity,Sea Level PressureIn,VisibilityMPH,Wind Direction,Wind SpeedMPH,Gust SpeedMPH,PrecipitationIn,Events,Conditions,WindDirDegrees,DateUTC
12:53 AM,36.0,19.0,50,30.22,10.0,NNW,4.6,-,N/A,,Clear,340,2013-03-28 04:53:00
1:53 AM,30.9,21.0,67,30.22,10.0,Calm,Calm,-,N/A,,Clear,0,2013-03-28 05:53:00
2:53 AM,35.1,18.0,50,30.21,10.0,Calm,Calm,-,N/A,,Clear,0,2013-03-28 06:53:00
3:53 AM,32.0,19.0,59,30.21,10.0,NNW,3.5,-,N/A,,Clear,340,2013-03-28 07:53:00
4:53 AM,32.0,19.0,59,30.21,10.0,Calm,Calm,-,N/A,,Clear,0,2013-03-28 08:53:00
5:53 AM,32.0,18.0,56,30.22,10.0,Calm,Calm,-,N/A,,Clear,0,2013-03-28 09:53:00
6:53 AM,28.9,18.0,64,30.24,10.0,Calm,Calm,-,N/A,,Clear,0,2013-03-28 10:53:00
7:53 AM,30.9,18.0,59,30.26,10.0,West,3.5,-,N/A,,Clear,260,2013-03-28 11:53:00
8:53 AM,37.0,21.0,52,30.26,10.0,WNW,4.6,-,N/A,,Clear,290,2013-03-28 12:53:00
9:53 AM,39.9,21.0,47,30.27,10.0,NNW,5.8,-,N/A,,Clear,330,2013-03-28 13:53:00
10:53 AM,44.1,18.0,35,30.27,10.0,WNW,10.4,-,N/A,,Clear,300,2013-03-28 14:53:00
11:53 AM,46.0,19.9,35,30.26,10.0,WNW,8.1,16.1,N/A,,Clear,290,2013-03-28 15:53:00
12:53 PM,48.0,19.0,32,30.24,10.0,North,11.5,-,N/A,,Clear,350,2013-03-28 16:53:00
1:53 PM,50.0,19.9,31,30.22,10.0,NW,8.1,17.3,N/A,,Clear,310,2013-03-28 17:53:00
2:53 PM,53.1,19.0,26,30.20,10.0,North,8.1,-,N/A,,Clear,10,2013-03-28 18:53:00
3:53 PM,54.0,19.0,25,30.18,10.0,Variable,6.9,-,N/A,,Clear,0,2013-03-28 19:53:00
4:53 PM,54.0,19.9,26,30.17,10.0,NNW,10.4,-,N/A,,Clear,330,2013-03-28 20:53:00
5:53 PM,54.0,19.9,26,30.18,10.0,NNW,8.1,-,N/A,,Clear,330,2013-03-28 21:53:00
6:53 PM,51.1,18.0,27,30.19,10.0,NNW,9.2,18.4,N/A,,Clear,340,2013-03-28 22:53:00
7:53 PM,48.0,19.0,32,30.21,10.0,North,8.1,-,N/A,,Clear,350,2013-03-28 23:53:00
8:53 PM,46.0,19.0,34,30.24,10.0,NNE,3.5,-,N/A,,Clear,20,2013-03-29 00:53:00
9:53 PM,45.0,19.9,37,30.25,10.0,Calm,Calm,-,N/A,,Clear,0,2013-03-29 01:53:00
10:53 PM,39.9,21.0,47,30.26,10.0,Calm,Calm,-,N/A,,Clear,0,2013-03-29 02:53:00
11:53 PM,37.9,26.1,62,30.27,10.0,NNE,3.5,-,N/A,,Clear,20,2013-03-29 03:53:00